CZ-4 DEB, 26118

Orbit data source: Space-Track

CZ-4 DEB, 26118 is space debris in SSO originally from a launch on Thu, 14 Oct 1999 UTC launched from the Taiyaun Space Center, China (TSC). Debris objects in space refer to the collection of defunct objects orbiting the Earth. Examples of debris include non-operational satellites, rocket bodies, and fragments generated from explosions, collisions, or faulty payload assembly.

Loading next visibility...
Identifier
26118, 1999-057E
Orbit
SSO
Country
Flag of CNCN / PRC
Related business
Manufacturer
Unknown
Mission
Spacecraft
Bus & Motor
Unknown
Mass
Unknown
Launch date (UTC)
1999-10-14 (26 years ago)
Launch vehicle
Unknown
Launch site
Taiyaun Space Center, China (TSC)
Object type
Payload
Rocket body
Debris
Shape & HBR
Unknown shape, 0.2 m
Radar Cross Section
Medium (>0.1 m² and <1 m²)

Expand to show TLE details & history
Last TLE update: 13 hours ago

TLE from 13 hours ago
0 CZ-4 DEB
1 26118U 99057E   25289.00385873  .00002714  00000-0  10512-2 0  9993
2 26118  99.1365 338.0972 0278701 309.7123  47.9778 14.11815709307352
Epoch: 2025-10-16T00:05Z
TLE epoch observation values (Epoch: 2025-10-16T00:05:33.394Z)
Latitude
0.00005°
Longitude
-48.06176°
Altitude
724.308 km
Speed
7.561 km/s
True Right ascension
22h 32m 23s
True Declination
0° 00' 00"
Sunlit
Object was in full shadow at epoch
Visualization orbit readout
Latitude
Unknown
Longitude
Unknown
Altitude
Unknown
Speed
Unknown
Apparent Right ascension
Unknown
Apparent Declination
Unknown
Sunlit
N/A
Visualization observer readout
Local Sidereal Time
07:49:40
Azimuth
Unknown
Elevation
Unknown
Doppler factor
Unknown
Orbital elements
Apogee altitude
1,051.811 km
Perigee altitude
648.893 km
Semi-major axis
7,228.489 km
Eccentricity
0.02787
Inclination
99.1365°
RAAN
338.0972°
Arg. of periapsis
309.7123°
True anomaly
50.4062°
Mean anomaly
47.9778°
Eccentric anomaly
49.18635°
Mean motion
3.5316 °/min
Orbital period
101.94 mins
BSTAR
0.0010512
Loading maneuver chart data...
Computing Atmospheric mass density...

Documentation

Showing up to 5 results
|